Cando, ND

12:54 AM CDT on October 22, 2017 (GMT -0500)
Cando

Weather History for K9D7 - January, 2014

Change the Weather History Date:

Friday, January 10, 2014

  Actual Average (KDVL) Record (KDVL)
Temperature  
Mean Temperature 20 °F -  
Max Temperature 32 °F 9 °F 43 °F (1953)
Min Temperature 8 °F -8 °F -30 °F (1989)
Degree Days  
Heating Degree Days 45    
Moisture  
Dew Point 19 °F    
Average Humidity 87    
Maximum Humidity 100    
Minimum Humidity 69    
Precipitation  
Precipitation 0.00 in - - ()
Sea Level Pressure  
Sea Level Pressure 29.42 in    
Wind  
Wind Speed 9 mph (WSW)    
Max Wind Speed 21 mph    
Max Gust Speed 23 mph    
Visibility 10 miles    
Events      
Averages and records for this station are not official NWS values.
T = Trace of Precipitation, MM = Missing Value Source: NWS Daily Summary

Daily Weather History Graph

Daily Weather History Graph

Search for Another Location

Airport or City:

Trip Planner

Search our weather history database for the weather conditions in past years. The results will help you decide how hot, cold, wet, or windy it might be!

Date:

Astronomy

Jan. 10, 2014 Rise Set
Actual Time 8:26 AM CST 5:02 PM CST
Civil Twilight 7:50 AM CST 5:38 PM CST
Nautical Twilight 7:11 AM CST 6:18 PM CST
Astronomical Twilight 6:33 AM CST 6:56 PM CST
Moon 1:14 PM CST (1/10) 3:27 AM CST (1/10)
Length of Visible Light 9h 48m
Length of Day
8h 36m
Waxing Gibbous, 75% of the Moon is Illuminated
Jan 10
Waxing Gibbous
Jan 15
Full
Jan 23
Last Quarter
Jan 30
New
Feb 6
First Quarter

Hourly Weather History & Observations

Time (CST) Temp. Windchill Dew Point Humidity Pressure Visibility Wind Dir Wind Speed Gust Speed Precip Events Conditions
12:15 AM 8.6 °F 0.1 °F 6.8 °F 92% 29.49 in 10.0 mi SSE 4.6 mph - N/A   Mostly Cloudy
12:35 AM 8.6 °F -3.7 °F 6.8 °F 92% 29.48 in 10.0 mi SSE 8.1 mph - N/A   Overcast
12:55 AM 8.6 °F -2.6 °F 6.8 °F 92% 29.48 in 10.0 mi South 6.9 mph - N/A   Overcast
1:15 AM 10.4 °F 2.2 °F 8.6 °F 92% 29.48 in 10.0 mi SSW 4.6 mph - N/A   Overcast
1:35 AM 10.4 °F 0.8 °F 8.6 °F 92% 29.47 in 10.0 mi South 5.8 mph - N/A   Overcast
1:55 AM 12.2 °F 2.9 °F 10.4 °F 92% 29.46 in 10.0 mi SSE 5.8 mph - N/A   Overcast
2:15 AM 12.2 °F 2.9 °F 10.4 °F 92% 29.46 in 10.0 mi South 5.8 mph - N/A   Overcast
2:35 AM 14.0 °F 5.1 °F 10.4 °F 86% 29.46 in 10.0 mi SSE 5.8 mph - N/A   Overcast
2:55 AM 14.0 °F 5.1 °F 14.0 °F 100% 29.46 in 10.0 mi SSE 5.8 mph - N/A   Overcast
3:15 AM 15.8 °F 8.6 °F 14.0 °F 93% 29.46 in 10.0 mi SW 4.6 mph - N/A   Overcast
3:35 AM 14.0 °F 8.2 °F 12.2 °F 93% 29.44 in 10.0 mi South 3.5 mph - N/A   Overcast
3:55 AM 14.0 °F 8.2 °F 10.4 °F 86% 29.43 in 10.0 mi SSE 3.5 mph - N/A   Overcast
4:15 AM 14.0 °F - 12.2 °F 93% 29.43 in 10.0 mi Calm Calm - N/A   Overcast
4:35 AM 15.8 °F 10.2 °F 14.0 °F 93% 29.43 in 10.0 mi WSW 3.5 mph - N/A   Overcast
4:55 AM 17.6 °F - 14.0 °F 86% 29.42 in 10.0 mi Calm Calm - N/A   Overcast
5:15 AM 15.8 °F 10.2 °F 14.0 °F 93% 29.41 in 10.0 mi South 3.5 mph - N/A   Overcast
5:35 AM 17.6 °F 12.3 °F 15.8 °F 93% 29.41 in 10.0 mi South 3.5 mph - N/A   Overcast
5:55 AM 19.4 °F 11.5 °F 17.6 °F 93% 29.40 in 10.0 mi SW 5.8 mph - N/A   Overcast
6:15 AM 21.2 °F 13.6 °F 19.4 °F 93% 29.41 in 7.0 mi WSW 5.8 mph - N/A   Overcast
6:35 AM 23.0 °F 15.8 °F 21.2 °F 93% 29.40 in 10.0 mi WSW 5.8 mph - N/A   Mostly Cloudy
6:55 AM 23.0 °F 18.4 °F 23.0 °F 100% 29.40 in 10.0 mi South 3.5 mph - N/A   Overcast
7:15 AM 23.0 °F 17.0 °F 23.0 °F 100% 29.40 in 10.0 mi South 4.6 mph - N/A   Overcast
7:35 AM 23.0 °F 15.8 °F 21.2 °F 93% 29.40 in 9.0 mi SSE 5.8 mph - N/A   Overcast
7:55 AM 21.2 °F 13.6 °F 19.4 °F 93% 29.39 in 8.0 mi SSE 5.8 mph - N/A   Overcast
8:15 AM 21.2 °F 14.9 °F 19.4 °F 93% 29.40 in 8.0 mi South 4.6 mph - N/A   Overcast
8:35 AM 21.2 °F 14.9 °F 19.4 °F 93% 29.40 in 8.0 mi SSW 4.6 mph - N/A   Overcast
8:55 AM 21.2 °F 12.6 °F 19.4 °F 93% 29.40 in 9.0 mi WSW 6.9 mph - N/A   Scattered Clouds
9:15 AM 19.4 °F 9.5 °F 17.6 °F 93% 29.40 in 10.0 mi WSW 8.1 mph - N/A   Clear
9:35 AM 23.0 °F 13.9 °F 19.4 °F 86% 29.41 in 10.0 mi WSW 8.1 mph - N/A   Clear
9:55 AM 23.0 °F 14.7 °F 19.4 °F 86% 29.41 in 10.0 mi WSW 6.9 mph - N/A   Clear
10:15 AM 23.0 °F 13.9 °F 19.4 °F 86% 29.41 in 10.0 mi West 8.1 mph - N/A   Clear
10:35 AM 24.8 °F 12.9 °F 21.2 °F 86% 29.41 in 10.0 mi West 13.8 mph - N/A   Clear
10:55 AM 26.6 °F 15.2 °F 21.2 °F 80% 29.41 in 10.0 mi West 13.8 mph - N/A   Clear
11:15 AM 26.6 °F 14.7 °F 23.0 °F 86% 29.41 in 10.0 mi West 15.0 mph - N/A   Clear
11:35 AM 28.4 °F 16.6 °F 23.0 °F 80% 29.40 in 10.0 mi West 16.1 mph - N/A   Clear
11:55 AM 28.4 °F 17.0 °F 23.0 °F 80% 29.39 in 10.0 mi West 15.0 mph - N/A   Scattered Clouds
12:15 PM 28.4 °F 17.5 °F 24.8 °F 86% 29.39 in 10.0 mi West 13.8 mph - N/A   Overcast
12:35 PM 30.2 °F 18.5 °F 24.8 °F 80% 29.38 in 10.0 mi West 17.3 mph - N/A   Overcast
12:55 PM 32.0 °F 20.8 °F 23.0 °F 69% 29.37 in 10.0 mi West 17.3 mph - N/A   Mostly Cloudy
1:15 PM 32.0 °F 21.6 °F 24.8 °F 75% 29.37 in 10.0 mi West 15.0 mph - N/A   Partly Cloudy
1:35 PM 30.2 °F 18.5 °F 23.0 °F 75% 29.37 in 10.0 mi West 17.3 mph - N/A   Clear
1:55 PM 32.0 °F 21.6 °F 23.0 °F 69% 29.37 in 10.0 mi West 15.0 mph - N/A   Clear
2:15 PM 32.0 °F 21.6 °F 23.0 °F 69% 29.36 in 10.0 mi West 15.0 mph - N/A   Clear
2:35 PM 32.0 °F 21.2 °F 23.0 °F 69% 29.36 in 10.0 mi West 16.1 mph - N/A   Partly Cloudy
2:55 PM 30.2 °F 19.3 °F 23.0 °F 75% 29.36 in 10.0 mi West 15.0 mph - N/A   Partly Cloudy
3:15 PM 30.2 °F 19.3 °F 23.0 °F 75% 29.36 in 10.0 mi West 15.0 mph - N/A   Mostly Cloudy
3:35 PM 30.2 °F 17.8 °F 24.8 °F 80% 29.36 in 10.0 mi West 19.6 mph 23.0 mph N/A   Scattered Clouds
3:55 PM 28.4 °F 15.1 °F 24.8 °F 86% 29.36 in 10.0 mi West 20.7 mph - N/A   Partly Cloudy
4:15 PM 28.4 °F 15.4 °F 24.8 °F 86% 29.37 in 10.0 mi West 19.6 mph - N/A   Scattered Clouds
4:35 PM 28.4 °F 16.6 °F 24.8 °F 86% 29.38 in 10.0 mi WNW 16.1 mph - N/A   Mostly Cloudy
4:55 PM 28.4 °F 16.6 °F 24.8 °F 86% 29.39 in 10.0 mi West 16.1 mph - N/A   Overcast
5:15 PM 28.4 °F 16.2 °F 24.8 °F 86% 29.39 in 10.0 mi West 17.3 mph - N/A   Overcast
5:35 PM 28.4 °F 15.4 °F 24.8 °F 86% 29.39 in 10.0 mi WNW 19.6 mph - N/A   Overcast
5:55 PM 28.4 °F 16.6 °F 24.8 °F 86% 29.39 in 10.0 mi WNW 16.1 mph - N/A   Overcast
6:15 PM 28.4 °F 16.2 °F 24.8 °F 86% 29.39 in 10.0 mi WNW 17.3 mph - N/A   Overcast
6:35 PM 26.6 °F 13.4 °F 24.8 °F 93% 29.39 in 10.0 mi WNW 18.4 mph - N/A   Overcast
6:55 PM 26.6 °F 13.8 °F 23.0 °F 86% 29.40 in 10.0 mi WNW 17.3 mph - N/A   Overcast
7:15 PM 24.8 °F 11.9 °F 23.0 °F 93% 29.40 in 10.0 mi WNW 16.1 mph - N/A   Overcast
7:35 PM 24.8 °F 11.9 °F 23.0 °F 93% 29.41 in 10.0 mi WNW 16.1 mph - N/A   Overcast
7:55 PM 24.8 °F 12.4 °F 21.2 °F 86% 29.42 in 10.0 mi WNW 15.0 mph - N/A   Overcast
8:15 PM 24.8 °F 13.4 °F 21.2 °F 86% 29.43 in 10.0 mi NW 12.7 mph - N/A   Overcast
8:35 PM 24.8 °F 16.1 °F 21.2 °F 86% 29.44 in 9.0 mi NNW 8.1 mph - N/A   Overcast
8:55 PM 23.0 °F 12.4 °F 21.2 °F 93% 29.44 in 8.0 mi NNW 10.4 mph - N/A   Overcast
9:15 PM 23.0 °F 13.1 °F 21.2 °F 93% 29.45 in 10.0 mi NNW 9.2 mph - N/A   Overcast
9:35 PM 23.0 °F 11.7 °F 21.2 °F 93% 29.46 in 10.0 mi NW 11.5 mph - N/A   Overcast
9:55 PM 23.0 °F 12.4 °F 19.4 °F 86% 29.46 in 10.0 mi WNW 10.4 mph - N/A   Overcast
10:15 PM 23.0 °F 13.9 °F 19.4 °F 86% 29.46 in 10.0 mi NW 8.1 mph - N/A   Overcast
10:35 PM 23.0 °F 11.7 °F 19.4 °F 86% 29.48 in 10.0 mi WNW 11.5 mph - N/A   Overcast
10:55 PM 23.0 °F 13.1 °F 19.4 °F 86% 29.49 in 10.0 mi WNW 9.2 mph - N/A   Overcast
11:15 PM 23.0 °F 13.9 °F 19.4 °F 86% 29.49 in 10.0 mi WNW 8.1 mph - N/A   Overcast
11:35 PM 23.0 °F 12.4 °F 19.4 °F 86% 29.50 in 10.0 mi WNW 10.4 mph - N/A   Overcast
11:55 PM 23.0 °F 11.1 °F 19.4 °F 86% 29.51 in 10.0 mi WNW 12.7 mph - N/A   Overcast